Year,Month,Day,Hour,Minute,Value (Times are PST for windspeed in km/hr)
2013,02,21,00,00,1.40
2013,02,21,00,01,1.00
2013,02,21,00,02,2.40
2013,02,21,00,03,0.90
2013,02,21,00,04,1.90
2013,02,21,00,05,2.30
2013,02,21,00,06,2.70
2013,02,21,00,07,0.30
2013,02,21,00,08,1.30
2013,02,21,00,09,2.10
2013,02,21,00,10,2.80
2013,02,21,00,11,1.50
2013,02,21,00,12,2.70
2013,02,21,00,13,1.00
2013,02,21,00,14,3.00
2013,02,21,00,15,1.90
2013,02,21,00,16,5.40
2013,02,21,00,17,5.40
2013,02,21,00,18,4.30
2013,02,21,00,19,5.30
2013,02,21,00,20,5.10
2013,02,21,00,21,4.90
2013,02,21,00,22,4.50
2013,02,21,00,23,2.70
2013,02,21,00,24,3.70
2013,02,21,00,25,4.80
2013,02,21,00,26,0.70
2013,02,21,00,27,1.10
2013,02,21,00,28,2.70
2013,02,21,00,29,0.80
2013,02,21,00,30,1.70
2013,02,21,00,31,4.20
2013,02,21,00,32,1.30
2013,02,21,00,33,3.40
2013,02,21,00,34,3.20
2013,02,21,00,35,1.30
2013,02,21,00,36,0.60
2013,02,21,00,37,1.00
2013,02,21,00,38,3.60
2013,02,21,00,39,3.40
2013,02,21,00,40,2.30
2013,02,21,00,41,2.70
2013,02,21,00,42,2.80
2013,02,21,00,43,4.20
2013,02,21,00,44,3.40
2013,02,21,00,45,3.40
2013,02,21,00,46,1.00
2013,02,21,00,47,1.50
2013,02,21,00,48,4.30
2013,02,21,00,49,1.70
2013,02,21,00,50,0.30
2013,02,21,00,51,1.20
2013,02,21,00,52,0.00
2013,02,21,00,53,0.10
2013,02,21,00,54,0.00
2013,02,21,00,55,0.00
2013,02,21,00,56,0.00
2013,02,21,00,57,0.10
2013,02,21,00,58,0.60
2013,02,21,00,59,4.00
2013,02,21,01,00,4.00
2013,02,21,01,01,3.10
2013,02,21,01,02,2.80
2013,02,21,01,03,2.50
2013,02,21,01,04,0.00
2013,02,21,01,05,0.10
2013,02,21,01,06,0.00
2013,02,21,01,07,0.00
2013,02,21,01,08,0.00
2013,02,21,01,09,2.20
2013,02,21,01,10,3.10
2013,02,21,01,11,1.30
2013,02,21,01,12,0.80
2013,02,21,01,13,1.70
2013,02,21,01,14,3.50
2013,02,21,01,15,2.70
2013,02,21,01,16,3.10
2013,02,21,01,17,3.90
2013,02,21,01,18,2.70
2013,02,21,01,19,4.80
2013,02,21,01,20,3.20
2013,02,21,01,21,2.70
2013,02,21,01,22,4.70
2013,02,21,01,23,4.40
2013,02,21,01,24,3.10
2013,02,21,01,25,4.80
2013,02,21,01,26,5.10
2013,02,21,01,27,5.10
2013,02,21,01,28,1.50
2013,02,21,01,29,3.80
2013,02,21,01,30,5.20
2013,02,21,01,31,4.90
2013,02,21,01,32,5.30
2013,02,21,01,33,4.90
2013,02,21,01,34,3.80
2013,02,21,01,35,4.40
2013,02,21,01,36,5.80
2013,02,21,01,37,3.10
2013,02,21,01,38,3.60
2013,02,21,01,39,5.10
2013,02,21,01,40,4.80
2013,02,21,01,41,0.80
2013,02,21,01,42,3.90
2013,02,21,01,43,2.30
2013,02,21,01,44,0.20
2013,02,21,01,45,0.00
2013,02,21,01,46,0.50
2013,02,21,01,47,0.10
2013,02,21,01,48,2.30
2013,02,21,01,49,3.00
2013,02,21,01,50,5.10
2013,02,21,01,51,4.10
2013,02,21,01,52,4.40
2013,02,21,01,53,1.50
2013,02,21,01,54,5.30
2013,02,21,01,55,5.70
2013,02,21,01,56,4.30
2013,02,21,01,57,4.70
2013,02,21,01,58,3.70
2013,02,21,01,59,5.10
2013,02,21,02,00,4.80
2013,02,21,02,01,3.50
2013,02,21,02,02,4.30
2013,02,21,02,03,3.00
2013,02,21,02,04,5.00
2013,02,21,02,05,3.40
2013,02,21,02,06,5.80
2013,02,21,02,07,4.90
2013,02,21,02,08,5.10
2013,02,21,02,09,4.80
2013,02,21,02,10,4.70
2013,02,21,02,11,4.90
2013,02,21,02,12,5.60
2013,02,21,02,13,5.20
2013,02,21,02,14,5.40
2013,02,21,02,15,4.40
2013,02,21,02,16,4.70
2013,02,21,02,17,2.30
2013,02,21,02,18,3.50
2013,02,21,02,19,4.30
2013,02,21,02,20,3.10
2013,02,21,02,21,0.50
2013,02,21,02,22,1.00
2013,02,21,02,23,1.30
2013,02,21,02,24,2.00
2013,02,21,02,25,2.60
2013,02,21,02,26,4.50
2013,02,21,02,27,4.70
2013,02,21,02,28,1.90
2013,02,21,02,29,1.70
2013,02,21,02,30,0.60
2013,02,21,02,31,1.90
2013,02,21,02,32,1.70
2013,02,21,02,33,1.90
2013,02,21,02,34,1.50
2013,02,21,02,35,0.30
2013,02,21,02,36,0.20
2013,02,21,02,37,0.00
2013,02,21,02,38,0.00
2013,02,21,02,39,0.10
2013,02,21,02,40,1.00
2013,02,21,02,41,0.00
2013,02,21,02,42,0.00
2013,02,21,02,43,0.00
2013,02,21,02,44,0.00
2013,02,21,02,45,0.10
2013,02,21,02,46,0.20
2013,02,21,02,47,0.90
2013,02,21,02,48,1.00
2013,02,21,02,49,0.20
2013,02,21,02,50,0.00
2013,02,21,02,51,1.60
2013,02,21,02,52,6.00
2013,02,21,02,53,5.90
2013,02,21,02,54,6.00
2013,02,21,02,55,3.50
2013,02,21,02,56,7.00
2013,02,21,02,57,3.70
2013,02,21,02,58,5.70
2013,02,21,02,59,5.60
2013,02,21,03,00,4.70
2013,02,21,03,01,4.80
2013,02,21,03,02,5.60
2013,02,21,03,03,4.50
2013,02,21,03,04,4.20
2013,02,21,03,05,3.90
2013,02,21,03,06,1.50
2013,02,21,03,07,4.00
2013,02,21,03,08,3.60
2013,02,21,03,09,4.50
2013,02,21,03,10,6.30
2013,02,21,03,11,2.90
2013,02,21,03,12,5.60
2013,02,21,03,13,3.90
2013,02,21,03,14,3.50
2013,02,21,03,15,1.00
2013,02,21,03,16,0.00
2013,02,21,03,17,0.00
2013,02,21,03,18,0.10
2013,02,21,03,19,0.00
2013,02,21,03,20,0.00
2013,02,21,03,21,0.00
2013,02,21,03,22,0.00
2013,02,21,03,23,0.00
2013,02,21,03,24,0.00
2013,02,21,03,25,0.10
2013,02,21,03,26,0.00
2013,02,21,03,27,0.00
2013,02,21,03,28,0.00
2013,02,21,03,29,0.00
2013,02,21,03,30,0.00
2013,02,21,03,31,0.00
2013,02,21,03,32,0.00
2013,02,21,03,33,0.00
2013,02,21,03,34,0.00
2013,02,21,03,35,0.00
2013,02,21,03,36,0.00
2013,02,21,03,37,0.00
2013,02,21,03,38,0.00
2013,02,21,03,39,0.60
2013,02,21,03,40,2.60
2013,02,21,03,41,1.00
2013,02,21,03,42,1.00
2013,02,21,03,43,0.10
2013,02,21,03,44,1.10
2013,02,21,03,45,1.50
2013,02,21,03,46,2.80
2013,02,21,03,47,4.70
2013,02,21,03,48,2.50
2013,02,21,03,49,3.50
2013,02,21,03,50,4.00
2013,02,21,03,51,2.60
2013,02,21,03,52,1.30
2013,02,21,03,53,0.60
2013,02,21,03,54,2.50
2013,02,21,03,55,0.80
2013,02,21,03,56,0.20
2013,02,21,03,57,2.50
2013,02,21,03,58,5.20
2013,02,21,03,59,3.60
2013,02,21,04,00,4.30
2013,02,21,04,01,3.90
2013,02,21,04,02,1.70
2013,02,21,04,03,1.00
2013,02,21,04,04,1.50
2013,02,21,04,05,1.80
2013,02,21,04,06,2.30
2013,02,21,04,07,3.80
2013,02,21,04,08,4.70
2013,02,21,04,09,1.70
2013,02,21,04,10,1.40
2013,02,21,04,11,4.60
2013,02,21,04,12,5.40
2013,02,21,04,13,4.00
2013,02,21,04,14,5.40
2013,02,21,04,15,6.70
2013,02,21,04,16,7.30
2013,02,21,04,17,6.80
2013,02,21,04,18,6.40
2013,02,21,04,19,8.60
2013,02,21,04,20,10.70
2013,02,21,04,21,7.70
2013,02,21,04,22,6.30
2013,02,21,04,23,9.40
2013,02,21,04,24,8.20
2013,02,21,04,25,5.70
2013,02,21,04,26,9.10
2013,02,21,04,27,7.60
2013,02,21,04,28,3.90
2013,02,21,04,29,2.70
2013,02,21,04,30,3.00
2013,02,21,04,31,5.20
2013,02,21,04,32,6.70
2013,02,21,04,33,4.60
2013,02,21,04,34,4.10
2013,02,21,04,35,5.20
2013,02,21,04,36,4.60
2013,02,21,04,37,3.40
2013,02,21,04,38,4.40
2013,02,21,04,39,4.90
2013,02,21,04,40,2.20
2013,02,21,04,41,6.60
2013,02,21,04,42,5.80
2013,02,21,04,43,5.90
2013,02,21,04,44,8.50
2013,02,21,04,45,3.80
2013,02,21,04,46,2.90
2013,02,21,04,47,5.90
2013,02,21,04,48,4.80
2013,02,21,04,49,7.20
2013,02,21,04,50,8.00
2013,02,21,04,51,8.80
2013,02,21,04,52,8.70
2013,02,21,04,53,3.20
2013,02,21,04,54,3.20
2013,02,21,04,55,6.80
2013,02,21,04,56,6.40
2013,02,21,04,57,6.70
2013,02,21,04,58,10.30
2013,02,21,04,59,11.10
2013,02,21,05,00,7.70
2013,02,21,05,01,13.00
2013,02,21,05,02,10.90
2013,02,21,05,03,11.60
2013,02,21,05,04,7.60
2013,02,21,05,05,10.70
2013,02,21,05,06,14.20
2013,02,21,05,07,10.00
2013,02,21,05,08,8.50
2013,02,21,05,09,10.80
2013,02,21,05,10,12.20
2013,02,21,05,11,9.90
2013,02,21,05,12,12.00
2013,02,21,05,13,9.20
2013,02,21,05,14,17.00
2013,02,21,05,15,10.30
2013,02,21,05,16,11.30
2013,02,21,05,17,15.00
2013,02,21,05,18,14.60
2013,02,21,05,19,14.20
2013,02,21,05,20,11.40
2013,02,21,05,21,12.70
2013,02,21,05,22,11.10
2013,02,21,05,23,12.30
2013,02,21,05,24,14.70
2013,02,21,05,25,10.10
2013,02,21,05,26,7.00
2013,02,21,05,27,10.00
2013,02,21,05,28,15.10
2013,02,21,05,29,22.00
2013,02,21,05,30,17.50
2013,02,21,05,31,19.90
2013,02,21,05,32,13.10
2013,02,21,05,33,16.30
2013,02,21,05,34,22.20
2013,02,21,05,35,10.00
2013,02,21,05,36,11.30
2013,02,21,05,37,13.60
2013,02,21,05,38,11.30
2013,02,21,05,39,15.50
2013,02,21,05,40,9.30
2013,02,21,05,41,13.00
2013,02,21,05,42,8.20
2013,02,21,05,43,9.00
2013,02,21,05,44,7.50
2013,02,21,05,45,15.20
2013,02,21,05,46,16.60
2013,02,21,05,47,9.60
2013,02,21,05,48,14.10
2013,02,21,05,49,20.80
2013,02,21,05,50,15.90
2013,02,21,05,51,23.80
2013,02,21,05,52,17.10
2013,02,21,05,53,11.80
2013,02,21,05,54,11.30
2013,02,21,05,55,15.30
2013,02,21,05,56,11.20
2013,02,21,05,57,9.70
2013,02,21,05,58,10.00
2013,02,21,05,59,16.90
2013,02,21,06,00,15.90
2013,02,21,06,01,15.70
2013,02,21,06,02,19.60
2013,02,21,06,03,14.60
2013,02,21,06,04,16.70
2013,02,21,06,05,21.50
2013,02,21,06,06,13.50
2013,02,21,06,07,15.90
2013,02,21,06,08,14.60
2013,02,21,06,09,18.30
2013,02,21,06,10,11.10
2013,02,21,06,11,20.00
2013,02,21,06,12,20.00
2013,02,21,06,13,21.50
2013,02,21,06,14,20.90
2013,02,21,06,15,19.20
2013,02,21,06,16,11.80
2013,02,21,06,17,24.80
2013,02,21,06,18,20.80
2013,02,21,06,19,21.80
2013,02,21,06,20,18.30
2013,02,21,06,21,20.30
2013,02,21,06,22,19.90
2013,02,21,06,23,15.90
2013,02,21,06,24,17.80
2013,02,21,06,25,20.20
2013,02,21,06,26,14.10
2013,02,21,06,27,14.60
2013,02,21,06,28,13.00
2013,02,21,06,29,17.60
2013,02,21,06,30,17.40
2013,02,21,06,31,15.60
2013,02,21,06,32,18.70
2013,02,21,06,33,12.60
2013,02,21,06,34,17.80
2013,02,21,06,35,18.40
2013,02,21,06,36,24.40
2013,02,21,06,37,16.50
2013,02,21,06,38,12.60
2013,02,21,06,39,17.50
2013,02,21,06,40,18.00
2013,02,21,06,41,16.60
2013,02,21,06,42,25.30
2013,02,21,06,43,18.00
2013,02,21,06,44,17.40
2013,02,21,06,45,17.20
2013,02,21,06,46,14.10
2013,02,21,06,47,19.50
2013,02,21,06,48,16.40
2013,02,21,06,49,16.70
2013,02,21,06,50,10.30
2013,02,21,06,51,16.70
2013,02,21,06,52,17.80
2013,02,21,06,53,17.30
2013,02,21,06,54,13.50
2013,02,21,06,55,14.70
2013,02,21,06,56,15.10
2013,02,21,06,57,10.80
2013,02,21,06,58,15.90
2013,02,21,06,59,12.90
2013,02,21,07,00,8.90
2013,02,21,07,01,11.80
2013,02,21,07,02,10.70
2013,02,21,07,03,14.00
2013,02,21,07,04,14.60
2013,02,21,07,05,9.80
2013,02,21,07,06,11.60
2013,02,21,07,07,7.60
2013,02,21,07,08,11.00
2013,02,21,07,09,11.70
2013,02,21,07,10,9.10
2013,02,21,07,11,7.60
2013,02,21,07,12,4.90
2013,02,21,07,13,4.70
2013,02,21,07,14,13.60
2013,02,21,07,15,10.50
2013,02,21,07,16,10.20
2013,02,21,07,17,16.60
2013,02,21,07,18,14.10
2013,02,21,07,19,14.10
2013,02,21,07,20,15.90
2013,02,21,07,21,15.90
2013,02,21,07,22,16.70
2013,02,21,07,23,13.50
2013,02,21,07,24,10.70
2013,02,21,07,25,11.20
2013,02,21,07,26,10.00
2013,02,21,07,27,12.00
2013,02,21,07,28,7.70
2013,02,21,07,29,8.40
2013,02,21,07,30,12.50
2013,02,21,07,31,10.30
2013,02,21,07,32,15.60
2013,02,21,07,33,14.10
2013,02,21,07,34,9.20
2013,02,21,07,35,10.10
2013,02,21,07,36,8.00
2013,02,21,07,37,12.20
2013,02,21,07,38,15.10
2013,02,21,07,39,11.20
2013,02,21,07,40,13.80
2013,02,21,07,41,16.10
2013,02,21,07,42,11.80
2013,02,21,07,43,11.40
2013,02,21,07,44,9.30
2013,02,21,07,45,13.00
2013,02,21,07,46,9.90
2013,02,21,07,47,13.60
2013,02,21,07,48,12.70
2013,02,21,07,49,10.40
2013,02,21,07,50,7.70
2013,02,21,07,51,11.30
2013,02,21,07,52,16.30
2013,02,21,07,53,12.30
2013,02,21,07,54,16.70
2013,02,21,07,55,13.00
2013,02,21,07,56,9.90
2013,02,21,07,57,11.60
2013,02,21,07,58,18.50
2013,02,21,07,59,17.00
2013,02,21,08,00,11.60
2013,02,21,08,01,10.40
2013,02,21,08,02,17.40
2013,02,21,08,03,9.60
2013,02,21,08,04,14.00
2013,02,21,08,05,13.40
2013,02,21,08,06,8.60
2013,02,21,08,07,7.10
2013,02,21,08,08,8.80
2013,02,21,08,09,9.90
2013,02,21,08,10,12.60
2013,02,21,08,11,18.80
2013,02,21,08,12,15.90
2013,02,21,08,13,11.60
2013,02,21,08,14,14.10
2013,02,21,08,15,11.30
2013,02,21,08,16,17.30
2013,02,21,08,17,8.60
2013,02,21,08,18,13.80
2013,02,21,08,19,19.00
2013,02,21,08,20,13.90
2013,02,21,08,21,13.00
2013,02,21,08,22,14.60
2013,02,21,08,23,14.30
2013,02,21,08,24,12.60
2013,02,21,08,25,9.40
2013,02,21,08,26,12.20
2013,02,21,08,27,8.00
2013,02,21,08,28,8.10
2013,02,21,08,29,13.80
2013,02,21,08,30,20.70
2013,02,21,08,31,11.30
2013,02,21,08,32,17.50
2013,02,21,08,33,22.10
2013,02,21,08,34,13.50
2013,02,21,08,35,20.10
2013,02,21,08,36,17.10
2013,02,21,08,37,14.80
2013,02,21,08,38,11.30
2013,02,21,08,39,6.80
2013,02,21,08,40,13.40
2013,02,21,08,41,10.50
2013,02,21,08,42,7.80
2013,02,21,08,43,12.80
2013,02,21,08,44,15.20
2013,02,21,08,45,15.20
2013,02,21,08,46,11.90
2013,02,21,08,47,14.80
2013,02,21,08,48,13.30
2013,02,21,08,49,10.70
2013,02,21,08,50,14.30
2013,02,21,08,51,18.30
2013,02,21,08,52,15.10
2013,02,21,08,53,18.90
2013,02,21,08,54,14.10
2013,02,21,08,55,10.70
2013,02,21,08,56,10.70
2013,02,21,08,57,12.20
2013,02,21,08,58,12.80
2013,02,21,08,59,14.90
2013,02,21,09,00,12.20
2013,02,21,09,01,12.00
2013,02,21,09,02,17.90
2013,02,21,09,03,16.50
2013,02,21,09,04,18.30
2013,02,21,09,05,16.30
2013,02,21,09,06,12.90
2013,02,21,09,07,16.80
2013,02,21,09,08,11.50
2013,02,21,09,09,14.50
2013,02,21,09,10,17.90
2013,02,21,09,11,17.50
2013,02,21,09,12,11.30
2013,02,21,09,13,7.10
2013,02,21,09,14,9.50
2013,02,21,09,15,13.10
2013,02,21,09,16,9.70
2013,02,21,09,17,15.20
2013,02,21,09,18,8.90
2013,02,21,09,19,11.90
2013,02,21,09,20,13.50
2013,02,21,09,21,8.30
2013,02,21,09,22,5.20
2013,02,21,09,23,10.00
2013,02,21,09,24,12.50
2013,02,21,09,25,9.50
2013,02,21,09,26,10.00
2013,02,21,09,27,9.70
2013,02,21,09,28,9.40
2013,02,21,09,29,9.10
2013,02,21,09,30,5.80
2013,02,21,09,31,6.20
2013,02,21,09,32,9.70
2013,02,21,09,33,10.50
2013,02,21,09,34,7.50
2013,02,21,09,35,8.20
2013,02,21,09,36,4.30
2013,02,21,09,37,3.80
2013,02,21,09,38,6.70
2013,02,21,09,39,8.70
2013,02,21,09,40,10.20
2013,02,21,09,41,11.50
2013,02,21,09,42,11.00
2013,02,21,09,43,11.70
2013,02,21,09,44,9.70
2013,02,21,09,45,13.50
2013,02,21,09,46,12.00
2013,02,21,09,47,12.10
2013,02,21,09,48,8.50
2013,02,21,09,49,7.00
2013,02,21,09,50,7.50
2013,02,21,09,51,4.90
2013,02,21,09,52,4.50
2013,02,21,09,53,5.20
2013,02,21,09,54,7.20
2013,02,21,09,55,2.70
2013,02,21,09,56,3.40
2013,02,21,09,57,2.50
2013,02,21,09,58,3.40
2013,02,21,09,59,8.40
2013,02,21,10,00,7.30
2013,02,21,10,01,6.90
2013,02,21,10,02,5.70
2013,02,21,10,03,1.40
2013,02,21,10,04,4.60
2013,02,21,10,05,5.60
2013,02,21,10,06,8.10
2013,02,21,10,07,8.10
2013,02,21,10,08,9.90
2013,02,21,10,09,8.60
2013,02,21,10,10,12.60
2013,02,21,10,11,10.80
2013,02,21,10,12,13.60
2013,02,21,10,13,13.00
2013,02,21,10,14,9.60
2013,02,21,10,15,9.40
2013,02,21,10,16,7.40
2013,02,21,10,17,8.30
2013,02,21,10,18,9.30
2013,02,21,10,19,7.40
2013,02,21,10,20,6.80
2013,02,21,10,21,6.10
2013,02,21,10,22,6.70
2013,02,21,10,23,5.70
2013,02,21,10,24,5.20
2013,02,21,10,25,5.50
2013,02,21,10,26,3.80
2013,02,21,10,27,8.10
2013,02,21,10,28,8.80
2013,02,21,10,29,4.80
2013,02,21,10,30,8.10
2013,02,21,10,31,6.80
2013,02,21,10,32,6.10
2013,02,21,10,33,3.40
2013,02,21,10,34,5.80
2013,02,21,10,35,4.60
2013,02,21,10,36,3.80
2013,02,21,10,37,6.60
2013,02,21,10,38,6.60
2013,02,21,10,39,12.70
2013,02,21,10,40,11.90
2013,02,21,10,41,10.30
2013,02,21,10,42,7.70
2013,02,21,10,43,7.80
2013,02,21,10,44,8.30
2013,02,21,10,45,9.00
2013,02,21,10,46,11.90
2013,02,21,10,47,10.50
2013,02,21,10,48,7.70
2013,02,21,10,49,7.10
2013,02,21,10,50,3.30
2013,02,21,10,51,6.40
2013,02,21,10,52,6.70
2013,02,21,10,53,7.90
2013,02,21,10,54,5.70
2013,02,21,10,55,9.70
2013,02,21,10,56,8.50
2013,02,21,10,57,10.20
2013,02,21,10,58,7.20
2013,02,21,10,59,8.30
2013,02,21,11,00,7.50
2013,02,21,11,01,9.30
2013,02,21,11,02,10.00
2013,02,21,11,03,9.60
2013,02,21,11,04,9.80
2013,02,21,11,05,9.40
2013,02,21,11,06,9.40
2013,02,21,11,07,9.70
2013,02,21,11,08,10.30
2013,02,21,11,09,7.60
2013,02,21,11,10,8.40
2013,02,21,11,11,7.20
2013,02,21,11,12,5.40
2013,02,21,11,13,12.30
2013,02,21,11,14,9.00
2013,02,21,11,15,7.80
2013,02,21,11,16,11.70
2013,02,21,11,17,12.60
2013,02,21,11,18,13.20
2013,02,21,11,19,14.70
2013,02,21,11,20,10.30
2013,02,21,11,21,6.30
2013,02,21,11,22,8.50
2013,02,21,11,23,13.40
2013,02,21,11,24,10.60
2013,02,21,11,25,12.40
2013,02,21,11,26,13.20
2013,02,21,11,27,14.20
2013,02,21,11,28,8.80
2013,02,21,11,29,15.10
2013,02,21,11,30,15.60
2013,02,21,11,31,14.90
2013,02,21,11,32,14.80
2013,02,21,11,33,10.50
2013,02,21,11,34,7.80
2013,02,21,11,35,8.20
2013,02,21,11,36,10.00
2013,02,21,11,37,10.60
2013,02,21,11,38,10.20
2013,02,21,11,39,3.50
2013,02,21,11,40,5.70
2013,02,21,11,41,10.00
2013,02,21,11,42,12.30
2013,02,21,11,43,9.10
2013,02,21,11,44,7.20
2013,02,21,11,45,4.20
2013,02,21,11,46,4.70
2013,02,21,11,47,8.20
2013,02,21,11,48,10.80
2013,02,21,11,49,8.30
2013,02,21,11,50,7.10
2013,02,21,11,51,7.30
2013,02,21,11,52,8.30
2013,02,21,11,53,10.50
2013,02,21,11,54,5.80
2013,02,21,11,55,9.00
2013,02,21,11,56,11.30
2013,02,21,11,57,11.40
2013,02,21,11,58,9.30
2013,02,21,11,59,6.10
2013,02,21,12,00,8.40
2013,02,21,12,01,12.30
2013,02,21,12,02,10.50
2013,02,21,12,03,9.50
2013,02,21,12,04,12.20
2013,02,21,12,05,9.70
2013,02,21,12,06,8.30
2013,02,21,12,07,8.90
2013,02,21,12,08,5.40
2013,02,21,12,09,5.00
2013,02,21,12,10,5.60
2013,02,21,12,11,1.50
2013,02,21,12,12,5.10
2013,02,21,12,13,4.80
2013,02,21,12,14,3.00
2013,02,21,12,15,3.90
2013,02,21,12,16,1.40
2013,02,21,12,17,1.00
2013,02,21,12,18,1.30
2013,02,21,12,19,0.80
2013,02,21,12,20,1.60
2013,02,21,12,21,2.60
2013,02,21,12,22,2.10
2013,02,21,12,23,0.90
2013,02,21,12,24,0.20
2013,02,21,12,25,2.70
2013,02,21,12,26,1.20
2013,02,21,12,27,3.60
2013,02,21,12,28,1.40
2013,02,21,12,29,0.80
2013,02,21,12,30,0.10
2013,02,21,12,31,1.70
2013,02,21,12,32,0.00
2013,02,21,12,33,2.00
2013,02,21,12,34,3.10
2013,02,21,12,35,1.30
2013,02,21,12,36,2.10
2013,02,21,12,37,3.00
2013,02,21,12,38,4.00
2013,02,21,12,39,2.50
2013,02,21,12,40,2.60
2013,02,21,12,41,2.20
2013,02,21,12,42,4.70
2013,02,21,12,43,2.50
2013,02,21,12,44,4.20
2013,02,21,12,45,5.10
2013,02,21,12,46,5.40
2013,02,21,12,47,2.60
2013,02,21,12,48,3.70
2013,02,21,12,49,3.40
2013,02,21,12,50,3.90
2013,02,21,12,51,3.70
2013,02,21,12,52,4.20
2013,02,21,12,53,2.70
2013,02,21,12,54,2.70
2013,02,21,12,55,2.40
2013,02,21,12,56,2.00
2013,02,21,12,57,6.30
2013,02,21,12,58,4.80
2013,02,21,12,59,3.20
2013,02,21,13,00,4.20
2013,02,21,13,01,6.80
2013,02,21,13,02,4.30
2013,02,21,13,03,0.30
2013,02,21,13,04,2.10
2013,02,21,13,05,6.40
2013,02,21,13,06,2.90
2013,02,21,13,07,2.60
2013,02,21,13,08,1.40
2013,02,21,13,09,3.50
2013,02,21,13,10,10.00
2013,02,21,13,11,6.80
2013,02,21,13,12,7.60
2013,02,21,13,13,9.80
2013,02,21,13,14,10.60
2013,02,21,13,15,5.00
2013,02,21,13,16,4.80
2013,02,21,13,17,6.20
2013,02,21,13,18,6.50
2013,02,21,13,19,1.30
2013,02,21,13,20,5.40
2013,02,21,13,21,1.80
2013,02,21,13,22,2.10
2013,02,21,13,23,1.40
2013,02,21,13,24,3.10
2013,02,21,13,25,4.10
2013,02,21,13,26,3.50
2013,02,21,13,27,5.80
2013,02,21,13,28,8.10
2013,02,21,13,29,6.40
2013,02,21,13,30,4.90
2013,02,21,13,31,5.80
2013,02,21,13,32,6.70
2013,02,21,13,33,2.90
2013,02,21,13,34,4.10
2013,02,21,13,35,3.90
2013,02,21,13,36,5.10
2013,02,21,13,37,9.60
2013,02,21,13,38,5.70
2013,02,21,13,39,6.80
2013,02,21,13,40,8.50
2013,02,21,13,41,7.60
2013,02,21,13,42,6.60
2013,02,21,13,43,10.40
2013,02,21,13,44,5.70
2013,02,21,13,45,2.30
2013,02,21,13,46,6.20
2013,02,21,13,47,7.20
2013,02,21,13,48,6.10
2013,02,21,13,49,9.70
2013,02,21,13,50,13.60
2013,02,21,13,51,14.80
2013,02,21,13,52,8.80
2013,02,21,13,53,6.20
2013,02,21,13,54,12.40
2013,02,21,13,55,9.80
2013,02,21,13,56,14.10
2013,02,21,13,57,10.60
2013,02,21,13,58,11.00
2013,02,21,13,59,8.30
2013,02,21,14,00,10.10
2013,02,21,14,01,11.80
2013,02,21,14,02,10.60
2013,02,21,14,03,6.40
2013,02,21,14,04,7.40
2013,02,21,14,05,10.30
2013,02,21,14,06,8.60
2013,02,21,14,07,10.60
2013,02,21,14,08,7.70
2013,02,21,14,09,5.10
2013,02,21,14,10,9.80
2013,02,21,14,11,9.30
2013,02,21,14,12,10.10
2013,02,21,14,13,8.10
2013,02,21,14,14,7.60
2013,02,21,14,15,8.00
2013,02,21,14,16,7.00
2013,02,21,14,17,7.30
2013,02,21,14,18,6.40
2013,02,21,14,19,7.70
2013,02,21,14,20,8.90
2013,02,21,14,21,7.80
2013,02,21,14,22,6.90
2013,02,21,14,23,3.80
2013,02,21,14,24,6.20
2013,02,21,14,25,7.90
2013,02,21,14,26,7.20
2013,02,21,14,27,4.80
2013,02,21,14,28,4.80
2013,02,21,14,29,7.60
2013,02,21,14,30,7.00
2013,02,21,14,31,6.60
2013,02,21,14,32,7.20
2013,02,21,14,33,3.10
2013,02,21,14,34,2.60
2013,02,21,14,35,2.30
2013,02,21,14,36,2.20
2013,02,21,14,37,3.30
2013,02,21,14,38,3.10
2013,02,21,14,39,7.20
2013,02,21,14,40,5.60
2013,02,21,14,41,9.30
2013,02,21,14,42,8.50
2013,02,21,14,43,6.20
2013,02,21,14,44,14.40
2013,02,21,14,45,9.30
2013,02,21,14,46,8.50
2013,02,21,14,47,6.40
2013,02,21,14,48,4.70
2013,02,21,14,49,3.20
2013,02,21,14,50,4.90
2013,02,21,14,51,3.80
2013,02,21,14,52,3.00
2013,02,21,14,53,1.50
2013,02,21,14,54,2.10
2013,02,21,14,55,8.20
2013,02,21,14,56,9.90
2013,02,21,14,57,7.80
2013,02,21,14,58,3.70
2013,02,21,14,59,7.30
2013,02,21,15,00,7.70
2013,02,21,15,01,2.70
2013,02,21,15,02,9.30
2013,02,21,15,03,7.60
2013,02,21,15,04,6.10
2013,02,21,15,05,5.60
2013,02,21,15,06,9.10
2013,02,21,15,07,8.20
2013,02,21,15,08,9.90
2013,02,21,15,09,9.50
2013,02,21,15,10,10.30
2013,02,21,15,11,7.60
2013,02,21,15,12,6.40
2013,02,21,15,13,6.00
2013,02,21,15,14,5.30
2013,02,21,15,15,3.20
2013,02,21,15,16,4.00
2013,02,21,15,17,6.00
2013,02,21,15,18,8.60
2013,02,21,15,19,8.50
2013,02,21,15,20,6.00
2013,02,21,15,21,5.00
2013,02,21,15,22,7.30
2013,02,21,15,23,9.20
2013,02,21,15,24,9.50
2013,02,21,15,25,4.80
2013,02,21,15,26,4.90
2013,02,21,15,27,7.20
2013,02,21,15,28,14.90
2013,02,21,15,29,7.90
2013,02,21,15,30,6.50
2013,02,21,15,31,4.80
2013,02,21,15,32,6.60
2013,02,21,15,33,7.10
2013,02,21,15,34,4.30
2013,02,21,15,35,6.50
2013,02,21,15,36,3.60
2013,02,21,15,37,5.40
2013,02,21,15,38,6.70
2013,02,21,15,39,7.60
2013,02,21,15,40,11.10
2013,02,21,15,41,8.10
2013,02,21,15,42,2.30
2013,02,21,15,43,6.50
2013,02,21,15,44,11.80
2013,02,21,15,45,4.90
2013,02,21,15,46,9.50
2013,02,21,15,47,14.70
2013,02,21,15,48,12.40
2013,02,21,15,49,14.90
2013,02,21,15,50,7.30
2013,02,21,15,51,5.20
2013,02,21,15,52,11.70
2013,02,21,15,53,12.00
2013,02,21,15,54,7.60
2013,02,21,15,55,5.40
2013,02,21,15,56,11.10
2013,02,21,15,57,19.60
2013,02,21,15,58,11.90
2013,02,21,15,59,11.00
2013,02,21,16,00,12.60
2013,02,21,16,01,8.00
2013,02,21,16,02,11.30
2013,02,21,16,03,13.20
2013,02,21,16,04,12.60
2013,02,21,16,05,6.80
2013,02,21,16,06,3.80
2013,02,21,16,07,6.40
2013,02,21,16,08,8.10
2013,02,21,16,09,8.30
2013,02,21,16,10,8.50
2013,02,21,16,11,5.70
2013,02,21,16,12,2.30
2013,02,21,16,13,2.80
2013,02,21,16,14,4.90
2013,02,21,16,15,9.70
2013,02,21,16,16,9.10
2013,02,21,16,17,9.30
2013,02,21,16,18,4.40
2013,02,21,16,19,7.20
2013,02,21,16,20,6.80
2013,02,21,16,21,4.50
2013,02,21,16,22,4.30
2013,02,21,16,23,6.70
2013,02,21,16,24,10.50
2013,02,21,16,25,11.40
2013,02,21,16,26,9.30
2013,02,21,16,27,5.40
2013,02,21,16,28,3.40
2013,02,21,16,29,6.50
2013,02,21,16,30,7.10
2013,02,21,16,31,9.10
2013,02,21,16,32,4.20
2013,02,21,16,33,5.70
2013,02,21,16,34,12.60
2013,02,21,16,35,9.00
2013,02,21,16,36,11.80
2013,02,21,16,37,9.70
2013,02,21,16,38,10.40
2013,02,21,16,39,8.10
2013,02,21,16,40,14.40
2013,02,21,16,41,9.50
2013,02,21,16,42,9.10
2013,02,21,16,43,14.90
2013,02,21,16,44,12.50
2013,02,21,16,45,9.50
2013,02,21,16,46,4.90
2013,02,21,16,47,8.00
2013,02,21,16,48,7.50
2013,02,21,16,49,10.30
2013,02,21,16,50,7.00
2013,02,21,16,51,15.50
2013,02,21,16,52,11.50
2013,02,21,16,53,8.60
2013,02,21,16,54,8.90
2013,02,21,16,55,10.20
2013,02,21,16,56,12.40
2013,02,21,16,57,16.10
2013,02,21,16,58,9.00
2013,02,21,16,59,8.50
2013,02,21,17,00,11.80
2013,02,21,17,01,7.90
2013,02,21,17,02,8.00
2013,02,21,17,03,6.60
2013,02,21,17,04,10.90
2013,02,21,17,05,5.10
2013,02,21,17,06,8.00
2013,02,21,17,07,7.70
2013,02,21,17,08,4.20
2013,02,21,17,09,6.30
2013,02,21,17,10,11.20
2013,02,21,17,11,8.30
2013,02,21,17,12,8.00
2013,02,21,17,13,8.20
2013,02,21,17,14,6.40
2013,02,21,17,15,10.40
2013,02,21,17,16,8.50
2013,02,21,17,17,6.80
2013,02,21,17,18,11.00
2013,02,21,17,19,7.20
2013,02,21,17,20,6.40
2013,02,21,17,21,8.00
2013,02,21,17,22,6.60
2013,02,21,17,23,6.70
2013,02,21,17,24,6.00
2013,02,21,17,25,2.30
2013,02,21,17,26,3.40
2013,02,21,17,27,7.30
2013,02,21,17,28,12.00
2013,02,21,17,29,7.20
2013,02,21,17,30,7.60
2013,02,21,17,31,6.80
2013,02,21,17,32,7.40
2013,02,21,17,33,6.10
2013,02,21,17,34,4.10
2013,02,21,17,35,7.30
2013,02,21,17,36,7.60
2013,02,21,17,37,7.30
2013,02,21,17,38,6.30
2013,02,21,17,39,3.10
2013,02,21,17,40,4.70
2013,02,21,17,41,5.10
2013,02,21,17,42,7.40
2013,02,21,17,43,6.30
2013,02,21,17,44,2.50
2013,02,21,17,45,5.70
2013,02,21,17,46,6.70
2013,02,21,17,47,7.70
2013,02,21,17,48,8.60
2013,02,21,17,49,6.10
2013,02,21,17,50,5.50
2013,02,21,17,51,7.60